Starlink 11263

operational
NORAD ID: 60725 Int'l Des: 2024-152 Owner: SPXS Country: US Constellation: starlink
LEOCIRCULAR

Über Starlink 11263

Beschreibung wird geladen...

Live-Position

3D-Globus wird geladen...

Nächste Überflüge

Höhenverlauf

Altitude vs Time

uPlot chart will show altitude changes over time

Zweizeiliger Elementsatz

1 60725U 24152F 25259.48422353 -.00000632 00000-0 -34448-6 0 9990
2 60725 53.1575 255.0616 0001857 85.6855 274.4375 15.69704264 61475
Epoch: 16. Sept. 2025 • Age: 35 hours

Aktueller Status

Höhe 362.0 km
Geschwindigkeit 7.69 km/s
Subsatellitenpunkt -6.88°S, 95.38°W
Startdatum 28. Aug. 2024
Alter 1 years
Typ internet

Technische Details

Klassifizierung Payload
Masse 960.00 kg
Trockenmasse 910.00 kg
Gesamtmasse 960.00 kg
Länge 0.30 m
Durchmesser 4.10 m
Spannweite 29.00 m
Form Box + pan
Hersteller SPXS
Bus-Typ Starlink V2MD
Phasenstatus In Orbit
Besitzer/Staat SPXS/US

Große Konstellationen

Loading constellations...